Le nostre stazioni meteo in Italia

Pubblicità
Il mio iltempo24.it
Grazzanise, Italia (16253): Temperatura & dewpoint: 16.10.2018 09:00:00 - 22.10.2018 09:00:00 (CEST)Grazzanise, Italia (16253): velocità del vento: 16.10.2018 09:00:00 - 22.10.2018 09:00:00 (CEST)Grazzanise, Italia (16253): direzione del vento: 16.10.2018 09:00:00 - 22.10.2018 09:00:00 (CEST)Grazzanise, Italia (16253): reduced air pressure: 16.10.2018 09:00:00 - 22.10.2018 09:00:00 (CEST)Grazzanise, Italia (16253): visibility: 16.10.2018 09:00:00 - 22.10.2018 09:00:00 (CEST)Grazzanise, Italia (16253): ore di luce: 16.10.2018 09:00:00 - 22.10.2018 09:00:00 (CEST)
Data & Tempo tt [°C] td [°C] ff [km/h] ff [kn] dd ppp [hPa] vv [km] sd [min]
22.10.2018 09:00:00 - - - - - - - -
22.10.2018 08:00:00 14,0 10,6 22 12 NNE 1010,4 20 -
22.10.2018 07:00:00 13,0 10,0 - - - - 10 -
22.10.2018 06:00:00 13,0 11,0 - - - - 10 -
22.10.2018 05:00:00 12,4 10,0 15 8 N 1011,8 20 -
22.10.2018 04:00:00 12,0 11,0 - - - - 10 -
22.10.2018 03:00:00 12,0 11,0 - - - - 10 -
22.10.2018 02:00:00 12,0 11,2 28 15 ENE 1012,4 20 -
22.10.2018 01:00:00 12,0 12,0 - - - - 10 -
22.10.2018 00:00:00 13,0 13,0 - - - - 10 -
21.10.2018 23:00:00 14,0 13,8 28 15 NNE 1014,4 20 -
21.10.2018 22:00:00 18,0 12,0 - - - - 10 -
21.10.2018 21:00:00 18,0 13,0 - - - - 10 -
21.10.2018 20:00:00 18,8 12,6 9 5 NNE 1014,2 10 -
21.10.2018 19:00:00 20,0 14,0 - - - - 10 -
21.10.2018 18:00:00 20,0 13,0 - - - - 10 -
21.10.2018 17:00:00 21,4 10,9 11 6 O 1014,5 18 0
21.10.2018 16:00:00 24,0 8,0 - - - - 10 -
21.10.2018 15:00:00 24,0 8,0 - - - - 10 -
21.10.2018 14:00:00 23,8 9,0 11 6 NNE 1016,4 15 36
21.10.2018 13:00:00 24,0 10,0 - - - - 10 -
21.10.2018 12:00:00 23,0 11,0 - - - - 10 -
21.10.2018 11:00:00 20,4 13,1 15 8 NNE 1018,6 10 60
21.10.2018 10:00:00 19,0 13,0 - - - - 10 -
21.10.2018 09:00:00 17,0 14,0 - - - - 10 -
21.10.2018 08:00:00 16,0 13,5 13 7 N 1018,5 12 -
21.10.2018 07:00:00 15,0 13,0 - - - - 10 -
21.10.2018 06:00:00 16,0 13,0 - - - - 10 -
21.10.2018 05:00:00 16,0 12,5 0 0 N 1018,3 15 -
21.10.2018 04:00:00 16,0 13,0 - - - - 10 -
21.10.2018 03:00:00 16,0 13,0 - - - - 10 -
21.10.2018 02:00:00 17,0 13,5 0 0 N 1019,5 10 -
21.10.2018 01:00:00 17,0 13,0 - - - - 10 -
21.10.2018 00:00:00 18,0 13,0 - - - - 10 -
20.10.2018 23:00:00 18,2 12,2 0 0 N 1019,4 10 -
20.10.2018 22:00:00 18,0 14,0 - - - - 10 -
20.10.2018 21:00:00 17,0 16,0 - - - - 10 -
20.10.2018 20:00:00 18,6 18,3 0 0 N 1018,3 10 -
20.10.2018 19:00:00 21,0 18,0 - - - - 10 -
20.10.2018 18:00:00 23,0 18,0 - - - - 10 -
20.10.2018 17:00:00 23,6 17,4 13 7 O 1018,4 20 -
20.10.2018 16:00:00 28,0 12,0 - - - - 10 -
20.10.2018 15:00:00 27,0 12,0 - - - - 10 -
20.10.2018 14:00:00 26,8 12,1 16 9 NE 1019,2 20 60
20.10.2018 13:00:00 26,0 13,0 - - - - 10 -
20.10.2018 12:00:00 25,0 14,0 - - - - 10 -
20.10.2018 11:00:00 23,2 15,0 15 8 NNE 1019,2 20 60
20.10.2018 10:00:00 20,0 15,0 - - - - 10 -
20.10.2018 09:00:00 18,0 16,0 - - - - 10 -
20.10.2018 08:00:00 16,6 15,0 13 7 NNE 1018,3 20 -
20.10.2018 07:00:00 16,0 14,0 - - - - 10 -
20.10.2018 06:00:00 16,0 14,0 - - - - 10 -
20.10.2018 05:00:00 16,6 15,0 11 6 NNE 1017,7 15 -
20.10.2018 04:00:00 18,0 16,0 - - - - 10 -
20.10.2018 03:00:00 18,0 17,0 - - - - 10 -
20.10.2018 02:00:00 18,4 16,4 9 5 N 1017,2 15 -
20.10.2018 01:00:00 19,0 16,0 - - - - 10 -
20.10.2018 00:00:00 19,0 16,0 - - - - 10 -
19.10.2018 23:00:00 19,4 16,2 15 8 NNE 1016,4 15 -
19.10.2018 22:00:00 20,0 17,0 - - - - 10 -
19.10.2018 21:00:00 20,0 16,0 - - - - 10 -
19.10.2018 20:00:00 21,0 16,6 9 5 NE 1015,2 15 -
19.10.2018 19:00:00 21,0 18,0 - - - - 10 -
19.10.2018 18:00:00 23,0 19,0 - - - - 10 -
19.10.2018 17:00:00 24,8 16,0 0 0 N 1014,2 15 60
19.10.2018 16:00:00 25,0 13,0 - - - - 10 -
19.10.2018 15:00:00 25,0 15,0 - - - - 10 -
19.10.2018 14:00:00 25,2 14,0 0 0 N 1014,2 15 60
19.10.2018 13:00:00 24,0 15,0 - - - - 10 -
19.10.2018 12:00:00 24,0 16,0 - - - - 10 -
19.10.2018 11:00:00 22,8 16,1 24 13 NNE 1014,6 20 60
19.10.2018 10:00:00 21,0 16,0 - - - - 10 -
19.10.2018 09:00:00 19,0 17,0 - - - - 10 -
19.10.2018 08:00:00 17,0 15,7 0 0 N 1013,8 10 -
19.10.2018 07:00:00 18,0 16,0 - - - - 10 -
19.10.2018 06:00:00 18,0 15,0 - - - - 10 -
19.10.2018 05:00:00 17,6 15,0 0 0 N 1013,7 20 -
19.10.2018 04:00:00 17,0 15,0 - - - - 10 -
19.10.2018 03:00:00 19,0 16,0 - - - - 10 -
19.10.2018 02:00:00 19,0 16,0 0 0 N 1013,6 20 -
19.10.2018 01:00:00 20,0 18,0 - - - - 10 -
19.10.2018 00:00:00 20,0 16,0 - - - - 10 -
18.10.2018 23:00:00 20,0 15,2 0 0 N 1013,1 20 -
18.10.2018 22:00:00 20,0 15,0 - - - - 10 -
18.10.2018 21:00:00 21,0 15,0 - - - - 10 -
18.10.2018 20:00:00 22,0 15,1 0 0 N 1012,2 20 -
18.10.2018 19:00:00 22,0 15,0 - - - - 10 -
18.10.2018 18:00:00 23,0 14,0 - - - - 10 -
18.10.2018 17:00:00 25,4 14,2 29 16 NE 1010,8 10 60
18.10.2018 16:00:00 26,0 15,0 - - - - 10 -
18.10.2018 15:00:00 26,0 15,0 - - - - 10 -
18.10.2018 14:00:00 26,2 15,0 26 14 NE 1011,3 30 60
18.10.2018 13:00:00 26,0 16,0 - - - - 10 -
18.10.2018 12:00:00 25,0 17,0 - - - - 10 -
18.10.2018 11:00:00 24,4 17,2 28 15 NE 1012,1 30 60
18.10.2018 10:00:00 23,0 17,0 - - - - 10 -
18.10.2018 09:00:00 21,0 17,0 - - - - 10 -
18.10.2018 08:00:00 20,4 17,6 0 0 N 1012,2 20 -
18.10.2018 07:00:00 21,0 18,0 - - - - 10 -
18.10.2018 06:00:00 20,0 18,0 - - - - 10 -
18.10.2018 05:00:00 20,4 17,8 21 11 NE 1012,9 12 -
18.10.2018 04:00:00 20,0 18,0 - - - - 10 -
18.10.2018 03:00:00 20,0 19,0 - - - - 10 -
18.10.2018 02:00:00 20,6 18,7 16 9 NNE 1013,9 12 -
18.10.2018 01:00:00 21,0 19,0 - - - - 10 -
18.10.2018 00:00:00 21,0 19,0 - - - - 10 -
17.10.2018 23:00:00 20,4 19,1 15 8 NE 1014,5 12 -
17.10.2018 22:00:00 19,0 19,0 - - - - 10 -
17.10.2018 21:00:00 20,0 19,0 - - - - 10 -
17.10.2018 20:00:00 21,0 18,2 4 2 OSO 1013,9 15 -
17.10.2018 19:00:00 21,0 19,0 - - - - 10 -
17.10.2018 18:00:00 23,0 18,0 - - - - 10 -
17.10.2018 17:00:00 26,0 17,1 0 0 N 1013,2 20 60
17.10.2018 16:00:00 27,0 17,0 - - - - 10 -
17.10.2018 15:00:00 27,0 15,0 - - - - 10 -
17.10.2018 14:00:00 26,0 17,1 0 0 N 1014,2 20 60
17.10.2018 13:00:00 25,0 17,0 - - - - 10 -
17.10.2018 12:00:00 25,0 18,0 - - - - 10 -
17.10.2018 11:00:00 24,0 17,7 0 0 N 1016,2 20 60
17.10.2018 10:00:00 22,0 18,0 - - - - 10 -
17.10.2018 09:00:00 20,0 18,0 - - - - 10 -
17.10.2018 08:00:00 18,0 16,3 0 0 N 1016,2 20 -
17.10.2018 07:00:00 18,0 17,0 - - - - 10 -
17.10.2018 06:00:00 18,0 17,0 - - - - 10 -
17.10.2018 05:00:00 17,6 16,5 11 6 NNE 1016,4 25 -
17.10.2018 04:00:00 18,0 17,0 - - - - 10 -
17.10.2018 03:00:00 18,0 17,0 - - - - 10 -
17.10.2018 02:00:00 18,0 17,2 9 5 NNE 1017,5 25 -
17.10.2018 01:00:00 18,0 18,0 - - - - 10 -
17.10.2018 00:00:00 18,0 18,0 - - - - 10 -
16.10.2018 23:00:00 18,0 17,8 5 3 NNE 1017,4 25 -
16.10.2018 22:00:00 19,0 18,0 - - - - 10 -
16.10.2018 21:00:00 20,0 19,0 - - - - 10 -
16.10.2018 20:00:00 21,2 19,1 4 2 N 1017,2 25 -
16.10.2018 19:00:00 22,0 18,0 - - - - 10 -
16.10.2018 18:00:00 23,0 18,0 - - - - 10 -
16.10.2018 17:00:00 23,4 16,9 16 9 SO 1016,7 25 36
16.10.2018 16:00:00 25,0 16,0 - - - - 10 -
16.10.2018 15:00:00 25,0 16,0 - - - - 10 -
16.10.2018 14:00:00 26,4 16,9 9 5 SE 1016,8 25 36
16.10.2018 13:00:00 25,0 17,0 - - - - 10 -
16.10.2018 12:00:00 25,0 18,0 - - - - 10 -
16.10.2018 11:00:00 24,0 18,2 16 9 NE 1017,3 25 48
16.10.2018 10:00:00 22,0 19,0 - - - - 10 -
16.10.2018 09:00:00 20,0 18,0 - - - - 10 -

tt = Temperatura
td = dewpoint
ff = velocità del vento
dd = direzione del vento
ppp = reduced air pressure
vv = visibility
sd = ore di luce

Stazioni seguenti

WeatherPro
AMSI
MeteoEarth